Location: Buckland
(65.9785°N, 161.1281°W)
Time: 15:03:31
(UTC+00:00)

Transit 4A - Pass Details

Date: 04 October 2022
Orbit: 871 x 972 km, 66.8° (Epoch: 29 November)

Event Time Altitude Azimuth Distance (km) Brightness Sun altitude
Exits shadow 15:56:30 - 300° (WNW) 3,260 10.3 -7.9°
Reaches altitude 10° 15:58:22 10° 296° (WNW) 2,574 9.7 -7.7°
Maximum altitude 16:04:03 49° 224° (SW) 1,127 8.1 -7.1°
Drops below altitude 10° 16:09:38 10° 151° (SSE) 2,526 10.5 -6.5°
Sets 16:12:09 0° 146° (SE) 3,458 11.4 -6.3°
